Weather Roundup
Issued by NWS Chicago, IL

Home | Current Version | Previous Version | Graphics & Text | Print | Product List | Glossary On
Versions: 1 2 3 4 5 6 7 8 9 10 11 12 13 14 15 16 17 18 19 20 21 22 23 24 25 26 27 28 29 30 31 32 33 34 35 36 37 38 39 40 41 42 43 44 45 46 47 48 49 50
000
NZUS59 KLOT 150508
HRRLOT

CHICAGO AREA WEATHER ROUNDUP
NATIONAL WEATHER SERVICE CHICAGO/ROMEOVILLE IL
1100 PM CST THU DEC 14 2017

NOTE: "FAIR" INDICATES FEW OR NO CLOUDS BELOW 12,000 FEET WITH NO
SIGNIFICANT WEATHER AND/OR OBSTRUCTIONS TO VISIBILITY.

* THESE STATIONS ARE NOT UNDER NWS QUALITY CONTROL. THEY ALSO MAY NOT
  REPORT WEATHER SUCH AS PRECIPITATION OR FOG.

ILZ005-006-012>014-019>023-150600-
NORTHEAST ILLINOIS

CITY           SKY/WX    TMP DP  RH WIND       PRES   REMARKS
OHARE          MOCLDY    20  11  68 SW5       30.03F WCI  13
MIDWAY         MOCLDY    21  11  65 W5        30.05F WCI  15
AURORA         CLOUDY    15  10  80 CALM      30.05F
LANSING*       CLEAR     15  12  88 CALM      30.06F
JOLIET*        MOCLDY    16  13  88 CALM      30.06F
WAUKEGAN       CLOUDY    20  13  74 SW7       30.01F WCI  11
DUPAGE AIRPORT MOCLDY    15  10  80 SW5       30.03F WCI   8
WHEELING       CLOUDY    23  12  62 SW5       30.05F WCI  17
KANKAKEE*      CLEAR     17   9  71 CALM      30.07F
MORRIS*        CLOUDY    15   9  76 SW3       30.05F
LEWIS AIRPORT* CLOUDY    16  11  82 CALM      30.05F
NORTHERLY ISL    N/A     24  12  60 W8          N/A  WCI  15
$$

WIZ051-052-058>065-066-070>072-150600-
SOUTHEAST WISCONSIN

CITY           SKY/WX    TMP DP  RH WIND       PRES   REMARKS
MILWAUKEE      CLOUDY    22  13  68 S8        29.99F WCI  12
KENOSHA*       CLOUDY    21  12  68 SW6       30.00F WCI  13
RACINE*        CLOUDY    21  12  68 SW7       30.02F WCI  12
BURLINGTON     PTCLDY    20  16  83 S3        29.99F
WAUKESHA       CLOUDY    19  12  73 SW5       29.98F WCI  13
WEST BEND      CLOUDY    19  14  79 S6        29.96F WCI  11
$$

INZ001>003-010>013-019-020-150600-
NORTHWEST INDIANA

CITY           SKY/WX    TMP DP  RH WIND       PRES   REMARKS
GARY*          CLEAR     20  13  74 SW3       30.06F
MICHIGAN CITY* NOT AVBL
RENSSELAER*    NOT AVBL
VALPARAISO     CLEAR     19  11  70 CALM      30.05F
$$

LMZ740>746-150600-
SOUTHERN LAKE MICHIGAN

STATION/POSITION TIME  SKY/WX   TEMP WIND        PRES    VSBY
                                AIR  DIR/SP/G
                 (UTC)          (F)  (DEG/KT/KT) (MB)    (MI)
HARRISON CRIB    0440            25  270/ 10/ 12   N/A
BURNHAM HARBOR   0500            24  240/  6/  8   N/A
CALUMET HARBOR   0448            21  220/  4/  5 1017.0F
BURNS HARBOR     0440            24  210/  6/  9 1017.9F
MICHIGAN CITY    0440            26  250/ 12/ 15   N/A
$$

ABBREVIATIONS USED IN REMARKS
   TC - TEMPERATURE IN CELSIUS
  WCI - WIND CHILL INDEX
   HX - HEAT INDEX
  VSB - VISIBILITY
$$




USA.gov is the U.S. government's official web portal to all federal, state and local government web resources and services.